Regional Weather Roundup
Issued by NWS

Home | Current Version | Previous Version | Graphics & Text | Print | Product List | Glossary On
Versions: 1 2 3 4 5 6 7 8 9 10 11 12 13 14 15 16 17 18 19 20 21 22 23 24 25 26 27 28 29 30 31 32 33 34 35 36 37 38 39 40 41 42 43 44 45 46 47 48 49 50
000
ASUS45 KPSR 210910
RWRAZ

ARIZONA REGIONAL HOURLY WEATHER ROUNDUP
NATIONAL WEATHER SERVICE PHOENIX AZ
200 AM MST THU AUG 21 2014

NOTE: FAIR INDICATES FEW OR NO CLOUDS BELOW 12,000 FEET WITH NO
SIGNIFICANT WEATHER AND/OR OBSTRUCTIONS TO VISIBILITY.

AZZ001>003-036-211000-
NORTHWEST ARIZONA

CITY           SKY/WX    TMP DP  RH WIND       PRES   REMARKS
BULLHEAD CITY  CLOUDY    84  57  39 SW3       29.85R
KINGMAN        CLOUDY    71  54  54 E6        30.02F
$$

AZZ004>008-015-016-018-211000-
NORTH CENTRAL ARIZONA

CITY           SKY/WX    TMP DP  RH WIND       PRES   REMARKS
GRAND CANYON     N/A    N/A N/A N/A MISG        N/A
WILLIAMS       MOCLDY    50  48  93 S6        30.30F
PRESCOTT       MOCLDY    65  52  62 E3        30.14F
FLAGSTAFF      PTCLDY    49  46  90 CALM      30.27S
PAYSON         PTCLDY    63  55  77 CALM      30.16S
PAGE           CLEAR     71  45  39 CALM      30.07F
$$

AZZ009>014-017-211000-
NORTHEAST ARIZONA

CITY           SKY/WX    TMP DP  RH WIND       PRES   REMARKS
WINSLOW        PTCLDY    60  53  77 SW8       30.13S
SAINT JOHNS    PTCLDY    59  48  67 S5        30.18R
SHOW LOW       CLOUDY    55  48  76 S3        30.25S
$$

AZZ023-211000-
GREATER PHOENIX AREA

CITY           SKY/WX    TMP DP  RH WIND       PRES   REMARKS
PHOENIX        CLOUDY    84  59  42 S5        29.86S
BUCKEYE          N/A     75  66  73 NW5       29.86F
LUKE AFB       NOT AVBL
DEER VALLEY    CLOUDY    81  63  54 CALM      29.87F
SCOTTSDALE     CLOUDY    83  62  49 CALM      29.89F
MESA-GATEWAY   MOCLDY    81  59  47 SE3       29.91S
$$

AZZ027-028-211000-
SOUTHWEST MARICOPA COUNTY AND PINAL COUNTY

CITY           SKY/WX    TMP DP  RH WIND       PRES   REMARKS
CASA GRANDE    CLOUDY    81  55  41 CALM      29.90F
$$

AZZ503-504-507>509-211000-
SOUTHEAST ARIZONA

CITY           SKY/WX    TMP DP  RH WIND       PRES   REMARKS
TUCSON         CLOUDY    79  63  57 SE3       30.00S
DAVIS-MONTHAN  CLOUDY    76  65  67 SE1       29.98F
NOGALES        MOCLDY    68  62  81 CALM      30.07F
SIERRA VISTA   MOCLDY    66  59  77 CALM      30.11F
DOUGLAS        CLEAR     64  60  87 CALM      30.08S
SAFFORD        CLEAR     69  61  75 CALM      29.99S
$$

AZZ020-021-025-026-031-211000-
SOUTHWEST ARIZONA

CITY           SKY/WX    TMP DP  RH WIND       PRES   REMARKS
YUMA           CLOUDY    86  66  51 SE6       29.81S
$$

CAZ031-033-041-043-047-048-061-211000-
SOUTHERN CALIFORNIA

CITY           SKY/WX    TMP DP  RH WIND       PRES   REMARKS
DOWNTOWN L.A.  CLEAR     67  60  78 CALM      29.92S
L.A. AIRPORT   CLEAR     67  60  78 W7        29.93S
SAN DIEGO      CLOUDY    70  62  76 W6        29.94F
BURBANK        CLEAR     67  59  75 SE6       29.92S
ONTARIO        PTCLDY    68  60  75 CALM      29.93S
RIVERSIDE      CLEAR     67  60  78 CALM      29.94S
PALM SPRINGS   CLEAR     82  55  39 NW10      29.84S
EL CENTRO NAS  CLEAR     82  51  34 NW6       29.78S
IMPERIAL       CLEAR     84  53  34 N3        29.78S
BLYTHE         CLOUDY    81  69  67 NE3       29.81S
NEEDLES        CLOUDY    88  53  30 CALM      29.85R
$$

NVZ020-UTZ003-211000-
SOUTHERN NEVADA-UTAH

CITY           SKY/WX    TMP DP  RH WIND       PRES   REMARKS
LAS VEGAS      PTCLDY    78  51  38 SW5       29.87F
SALT LAKE CITY CLOUDY    66  53  63 SE10      30.00S
$$

NMZ009-TXZ055-211000-
NEW MEXICO-WEST TEXAS

CITY           SKY/WX    TMP DP  RH WIND       PRES   REMARKS
ALBUQUERQUE    PTCLDY    65  47  52 SE7       30.09S
EL PASO        PTCLDY    81  45  28 N7        30.00S
$$


........................KEY........................
SKY/WX - SKY CONDITION/WEATHER
TMP    - TEMPERATURE IN FAHRENHEIT
DP     - DEW POINT IN FAHRENHEIT
RH     - RELATIVE HUMIDITY IN PERCENT
WIND   - DIRECTION AND SPEED IN MILES PER HOUR (MPH)
VRB    - VARIABLE WIND DIRECTION
PRES   - MEAN SEA LEVEL PRESSURE IN INCHES OF MERCURY
         F - FALLING PRESSURE   R - RISING PRESSURE
         S - STEADY PRESSURE
VSB    - VISIBILITY IN MILES
HX     - HEAT INDEX IN FAHRENHEIT
WCI    - WIND CHILL INDEX IN FAHRENHEIT
TC     - TEMPERATURE IN CELSIUS WHICH IS ALSO KNOWN AS
         TEMPERATURE IN CENTIGRADE
AFB    - AIR FORCE BASE
         LUKE AFB IS LUKE AIR FORCE BASE
         DAVIS-MONTHAN IS DAVIS-MONTHAN AIR FORCE BASE
NAS    - NAVAL AIR STATION
         EL CENTRO NAS IS EL CENTRO NAVAL AIR STATION
N/A    - NOT AVAILABLE


USA.gov is the U.S. government's official web portal to all federal, state and local government web resources and services.